Regional Weather Roundup
Issued by NWS

Home | Current Version | Previous Version | Graphics & Text | Print | Product List | Glossary Off
Versions: 1 2 3 4 5 6 7 8 9 10 11 12 13 14 15 16 17 18 19 20 21 22 23 24 25 26 27 28 29 30 31 32 33 34 35 36 37 38 39 40 41 42 43 44 45 46 47 48 49 50

000
ASUS43 KMKX 131911
RWRWI

WISCONSIN REGIONAL WEATHER ROUNDUP
NATIONAL WEATHER SERVICE MILWAUKEE/SULLIVAN WI
200 PM CDT SUN JUL 13 2014

NOTE: "FAIR" INDICATES FEW OR NO CLOUDS BELOW 12,000 FEET WITH NO
SIGNIFICANT WEATHER AND/OR OBSTRUCTIONS TO VISIBILITY.

WIZ001-002-006>008-014>016-023>028-132000-
NORTHWEST WISCONSIN

CITY           SKY/WX    TMP DP  RH WIND       PRES   REMARKS
SUPERIOR ARPT  PTSUNNY   69  49  48 NW10      29.85F
ASHLAND        CLOUDY    70  49  47 W12G18    29.87F
HAYWARD        MOSUNNY   71  47  42 W8        29.90F
SIREN          MOSUNNY   72  46  39 W13G25    29.91F
RICE LAKE      PTSUNNY   70  48  45 W14G20    29.94S
LADYSMITH      MOSUNNY   71  49  44 W13G18    29.93F
EAU CLAIRE     MOSUNNY   74  49  41 W10       29.92F
MENOMONIE      CLEAR     75  49  40 SW13      29.93F
NEW RICHMOND   MOSUNNY   71  49  45 W16       29.94F
OSCEOLA        MOSUNNY   74  50  42 W16       29.95F
$$

WIZ003>005-009-010-017-018-132000-
NORTH CENTRAL WISCONSIN

CITY           SKY/WX    TMP DP  RH WIND       PRES   REMARKS
WOODRUFF       MOSUNNY   72  45  38 W13       29.89S
RHINELANDER    MOSUNNY   70  47  43 W13G21    29.90F
EAGLE RIVER    MOSUNNY   68  40  35 W12G21    29.88S
LAND O LAKES   MOSUNNY   69  41  36 W12G18    29.89S
PHILLIPS       PTSUNNY   68  46  45 W8        29.90F
TOMAHAWK       MOSUNNY   69  46  43 W9G17     29.91F
MEDFORD        SUNNY     69  48  46 W12G20    29.92F
MERRILL        SUNNY     72  46  40 NW12G18   29.90F
$$

WIZ029-030-035-036-043>047-132000-
CENTRAL WISCONSIN

CITY           SKY/WX    TMP DP  RH WIND       PRES   REMARKS
WAUSAU         SUNNY     74  46  36 W16       29.89F
MOSINEE        MOSUNNY   72  46  40 W14G22    29.92F
MARSHFIELD     MOSUNNY   72  48  42 NW10      29.92F
STEVENS POINT  SUNNY     72  46  38 NW12G20   29.91F
WAUPACA        SUNNY     79  42  27 W10G21    29.89S
WAUTOMA        SUNNY     78  53  41 NW12G20   29.90F
WISC RAPIDS    SUNNY     77  47  34 NW14      29.92F
CAMP DOUGLAS   PTSUNNY   77  59  53 W15       29.92F
$$

WIZ011>013-019>022-031-037>040-048>050-132000-
NORTHEAST WISCONSIN

CITY           SKY/WX    TMP DP  RH WIND       PRES   REMARKS
ANTIGO         SUNNY     69  47  46 NW12G20   29.90S
STURGEON BAY   SUNNY     75  48  38 NW16      29.86S
GREEN BAY      SUNNY     79  42  26 NW17G26   29.86F
MANITOWOC      MOSUNNY   77  58  51 NW18G25   29.86S
APPLETON       MOSUNNY   75  46  35 NW14G21   29.89S
CLINTONVILLE   SUNNY     77  41  27 W7        29.87F
OSHKOSH        MOSUNNY   77  58  51 W15G23    29.87F
$$

WIZ032>034-041-042-053>061-132000-
SOUTHWEST WISCONSIN

CITY           SKY/WX    TMP DP  RH WIND       PRES   REMARKS
LA CROSSE      SUNNY     78  53  41 NW15      29.92F
SPARTA         SUNNY     75  49  39 NW12G17   29.94F
VIROQUA        FAIR      75  61  61 NW13      29.94F
BOSCOBEL       SUNNY     84  61  45 NW12G20   29.91F HX  84
PRAIRIE DU CHI MOSUNNY   81  60  49 W15       29.92S HX  81
PLATTEVILLE    FAIR      81  65  58 W14G20    29.94F HX  83
$$

WIZ056-057-062-063-064-067-068-132000-
SOUTH CENTRAL WISCONSIN

CITY           SKY/WX    TMP DP  RH WIND       PRES   REMARKS
BARABOO/DELLS  PTSUNNY   77  61  58 NW7       29.91S
LONE ROCK      MOSUNNY   83  61  47 W17G28    29.90F HX  83
WATERTOWN      PTSUNNY   78  63  58 W8G20     29.89S HX  80
MADISON        MOSUNNY   81  63  54 NW12G20   29.90F HX  82
MIDDLETON      MOCLDY    80  62  54 W10       29.91S HX  81
MONROE         PTSUNNY   81  64  57 SW18G25   29.92F HX  82
JANESVILLE     PTSUNNY   81  63  54 W10       29.90F HX  82
$$

WIZ051-052-058>065-066-070>072-132000-
SOUTHEAST WISCONSIN

CITY           SKY/WX    TMP DP  RH WIND       PRES   REMARKS
MILWAUKEE      LGT RAIN  81  62  52 W13       29.88F HX  82
WAUKESHA       PTSUNNY   77  64  65 SW12      29.90F
MILWAUKEE/TIMM MOSUNNY   82  61  47 W12G20    29.88F HX  83
RACINE         SUNNY     82  63  52 W13       29.90F HX  83
BURLINGTON     MOSUNNY   79  63  57 W13G20    29.90F HX  80
KENOSHA        SUNNY     81  65  58 W16       29.90F HX  83
FOND DU LAC    MOSUNNY   79  61  53 W17G24    29.88S HX  80
SHEBOYGAN      LGT RAIN  73  65  75 W6        29.87S
WEST BEND      MOSUNNY   79  57  47 W17       29.88F HX  80
JUNEAU         MOSUNNY   78  46  32 W15       29.90F
$$

LSZ147-162-132000-
LAKE SUPERIOR

STATION/POSITION TIME  TEMP    WIND        PRES    WAVE
                       AIR SEA DIR/SP/G            HT/PER
                 (UTC) (F)     (DEG/KT/KT) (MB)    (FT/S)
W MID LAKE BUOY  1850   47 38  230/ 14/ 16 1009.7F   2/ 4
PORT WING        1900   58     240/  6/ 19 1011.2
SAXON HARBOR     1800          240/  6/ 12 1011.9F
$$

LMZ867-665-643>646-132000-
LAKE MICHIGAN

STATION/POSITION TIME  TEMP    WIND        PRES    WAVE
                       AIR SEA DIR/SP/G            HT/PER
                 (UTC) (F)     (DEG/KT/KT) (MB)    (FT/S)
N MID LAKE BUOY  1850   64 60  320/ 12/ 14 1009.6F   1/ 3
NORTHPORT PIER   1800   69     320/ 10/ 14 1010.5R
KEWAUNEE LAKESHO 1800   76     280/ 10/ 17 1011.5F
SHEBOYGAN LAKESH 1900   74     290/ 10/ 12 1011.2S
PORT WASHINGTON  1800   81     290/  7/ 18 1012.2
MILWAUKEE LAKESH 1800   79     290/ 13/ 19   N/A
S MID LAKE BUOY  1850   63 62  190/ 10/ 12 1012.4F   1/ 3
KENOSHA   LAKESH 1900   80     290/ 12/ 18   N/A
$$

TC  - TEMPERATURE IN CELSIUS
VSB - VISIBILITY IN STATUTE MILES
WCI - WIND CHILL INDEX
HX  - HEAT INDEX



USA.gov is the U.S. government's official web portal to all federal, state and local government web resources and services.